Regional Weather Roundup
Issued by NWS Cleveland, OH

Home | Current Version | Previous Version | Graphics & Text | Print | Product List | Glossary On
Versions: 1 2 3 4 5 6 7 8 9 10 11 12 13 14 15 16 17 18 19 20 21 22 23 24 25 26 27 28 29 30 31 32 33 34 35 36 37 38 39 40 41 42 43 44 45 46 47 48 49 50
000
ASUS41 KCLE 230110
RWRCLE
OHIO REGIONAL WEATHER ROUNDUP
NATIONAL WEATHER SERVICE WILMINGTON, OH
900 PM EDT TUE JUL 22 2014

NOTE: "FAIR" INDICATES FEW OR NO CLOUDS BELOW 12,000 FEET WITH NO
SIGNIFICANT WEATHER AND/OR OBSTRUCTIONS TO VISIBILITY.

OHZ001>008-015>018-024>027-034-035-043-044-230200-
   NORTHWEST OHIO

CITY           SKY/WX    TMP DP  RH WIND       PRES   REMARKS
DEFIANCE       CLEAR     84  66  54 SW7       29.99R
FINDLAY        CLEAR     79  67  66 SW7       29.99S
TOLEDO EXPRESS CLEAR     82  66  58 SW7       29.98R
TOLEDO METCALF CLEAR     83  65  54 SW8       29.98R
LIMA           CLEAR     81  67  62 S6        30.01F
$$

OHZ009>014-019>023-028>033-038-089-230200-
   NORTHEAST OHIO

CITY           SKY/WX    TMP DP  RH WIND       PRES   REMARKS
CLE-HOPKINS    PTCLDY    82  65  56 S7        30.01F
CLE-LAKEFRONT  CLEAR     84  65  52 SW10      29.97F
CUY CO. ARPT   PTCLDY    81  72  74 S5        30.01S
LORAIN-ELYRIA  CLEAR     84  67  56 SW6       30.00S
ASHTABULA      CLEAR     75  69  81 CALM      30.01F
AKRON-CANTON   PTCLDY    80  68  66 SW6       30.04S
WOOSTER        CLEAR     77  69  76 S6        30.04S
MANSFIELD      CLEAR     77  68  73 SW6       30.04F
YOUNGSTOWN     CLEAR     79  68  69 S5        30.03F
$$

OHZ042-051>053-060>062-070>072-077>081-230200-
  SOUTHWEST OHIO

CITY           SKY/WX    TMP DP  RH WIND       PRES   REMARKS
CINC-COVINGTON CLEAR     82  67  60 W3        30.04S
CINC-LUNKEN    CLEAR     80  71  74 S3        30.02S
HAMILTON       CLEAR     78  70  76 CALM      30.03S
DAYTON         PTCLDY    80  67  64 SW7       30.04F
WRIGHT-PAT AFB CLEAR     81  69  67 SW3       30.03S
DAYTON GENERAL CLEAR     83  66  56 SW3       30.04R
WILMINGTON     CLEAR     79  71  76 S3        30.04S
$$

OHZ036-037-039>041-045>050-054>059-063>069-073>076-082>088-230200-
  CENTRAL AND SOUTHEAST OHIO

CITY           SKY/WX    TMP DP  RH WIND       PRES   REMARKS
COLUMBUS       CLEAR     86  68  54 S6        30.02F
OSU AIRPORT    CLEAR     82  68  62 SW5       30.03F
BOLTON FIELD   CLEAR     79  73  81 S5        30.03F
RICKENBACK AFB CLEAR     83  68  61 CALM      30.02F
NEWARK         CLEAR     81  70  69 SW5       30.03F
MARION         CLEAR     81  66  60 SW6       30.02F
LANCASTER      CLEAR     80  71  74 S3        30.03F
ZANESVILLE     CLEAR     81  72  74 CALM      30.04S
NEW PHILLY     CLEAR     80  71  74 CALM      30.04F
$$


USA.gov is the U.S. government's official web portal to all federal, state and local government web resources and services.